St. Johns, AZ

10:06 PM MST on July 21, 2017 (GMT -0700)
Saint Johns Industrial

Weather History for KSJN - October, 2012

Change the Weather History Date:

Monday, October 8, 2012

  Actual Average (KLSB) Record (KLSB)
Temperature  
Mean Temperature 56 °F -  
Max Temperature 78 °F 81 °F 82 °F (2013)
Min Temperature 35 °F 45 °F 46 °F (2015)
Degree Days  
Heating Degree Days 8    
Growing Degree Days 6 (Base 50)    
Moisture  
Dew Point 27 °F    
Average Humidity 32    
Maximum Humidity 57    
Minimum Humidity 15    
Precipitation  
Precipitation 0.00 in - - ()
Sea Level Pressure  
Sea Level Pressure 29.94 in    
Wind  
Wind Speed 6 mph (SW)    
Max Wind Speed 18 mph    
Max Gust Speed 31 mph    
Visibility 10 miles    
Events      
Averages and records for this station are not official NWS values.
T = Trace of Precipitation, MM = Missing Value Source: NWS Daily Summary

Daily Weather History Graph

Daily Weather History Graph

Search for Another Location

Airport or City:

Trip Planner

Search our weather history database for the weather conditions in past years. The results will help you decide how hot, cold, wet, or windy it might be!

Date:

Astronomy

Oct. 08, 2012 Rise Set
Actual Time 6:17 AM MST 5:51 PM MST
Civil Twilight 5:52 AM MST 6:16 PM MST
Nautical Twilight 5:23 AM MST 6:45 PM MST
Astronomical Twilight 4:54 AM MST 7:14 PM MST
Moon No Moon Rise 1:27 PM MST (10/8)
Length of Visible Light 12h 23m
Length of Day
11h 33m
Last Quarter, 45% of the Moon is Illuminated
Oct 8
Last Quarter
Oct 15
New
Oct 21
First Quarter
Oct 29
Full
Nov 6
Last Quarter

Hourly Weather History & Observations

Time (MST) Temp. Dew Point Humidity Pressure Visibility Wind Dir Wind Speed Gust Speed Precip Events Conditions
12:54 AM 48.9 °F 21.0 °F 33% 29.94 in 10.0 mi South 4.6 mph - N/A   Clear
1:54 AM 48.9 °F 23.0 °F 36% 29.93 in 10.0 mi South 3.5 mph - N/A   Unknown
2:54 AM 45.0 °F 23.0 °F 42% 29.93 in 10.0 mi Calm Calm - N/A   Clear
3:54 AM 43.0 °F 25.0 °F 49% 29.94 in 10.0 mi Calm Calm - N/A   Clear
4:54 AM 39.9 °F 23.0 °F 51% 29.97 in 10.0 mi Calm Calm - N/A   Clear
5:54 AM 37.9 °F 24.1 °F 57% 30.01 in 10.0 mi Calm Calm - N/A   Clear
6:54 AM 39.0 °F 23.0 °F 53% 30.05 in 10.0 mi Calm Calm - N/A   Clear
7:54 AM 48.9 °F 21.9 °F 35% 30.04 in 10.0 mi Calm Calm - N/A   Clear
8:54 AM 57.9 °F 28.0 °F 32% 30.01 in 10.0 mi Calm Calm - N/A   Clear
9:54 AM 66.0 °F 30.9 °F 27% 29.97 in 10.0 mi Calm Calm - N/A   Clear
10:54 AM 72.0 °F 30.0 °F 21% 29.92 in 10.0 mi West 6.9 mph - N/A   Clear
11:54 AM 75.0 °F 28.0 °F 18% 29.90 in 10.0 mi West 13.8 mph 31.1 mph N/A   Clear
12:54 PM 77.0 °F 28.0 °F 17% 29.88 in 10.0 mi West 15.0 mph 29.9 mph N/A   Clear
1:54 PM 77.0 °F 28.0 °F 17% 29.86 in 10.0 mi West 17.3 mph 26.5 mph N/A   Clear
2:54 PM 78.1 °F 26.1 °F 15% 29.85 in 10.0 mi WSW 16.1 mph 25.3 mph N/A   Clear
3:54 PM 77.0 °F 28.0 °F 17% 29.86 in 10.0 mi West 18.4 mph 28.8 mph N/A   Clear
4:54 PM 75.0 °F 27.0 °F 17% 29.87 in 10.0 mi WSW 16.1 mph 23.0 mph N/A   Clear
5:54 PM 71.1 °F 28.0 °F 20% 29.90 in 10.0 mi SW 12.7 mph - N/A   Clear
6:54 PM 66.9 °F 27.0 °F 22% 29.93 in 10.0 mi WSW 11.5 mph - N/A   Clear
7:54 PM 63.0 °F 28.0 °F 27% 29.93 in 10.0 mi SW 10.4 mph - N/A   Clear
8:54 PM 61.0 °F 28.0 °F 29% 29.92 in 10.0 mi SW 10.4 mph - N/A   Clear
9:54 PM 59.0 °F 30.0 °F 33% 29.91 in 10.0 mi SSW 8.1 mph - N/A   Clear
10:54 PM 55.9 °F 30.0 °F 37% 29.91 in 10.0 mi South 10.4 mph - N/A   Clear
11:54 PM 52.0 °F 30.0 °F 43% 29.90 in 10.0 mi South 6.9 mph - N/A   Clear